When you browse on this site, cookies collect data to enhance your experience and personalize the content and advertising you see.
Visit our Privacy Policy to learn more. By continuing to use the site, you agree to this use of cookies and data.
  • In Netherlands
  • List of Countries
  • For 7 days
  • Water Temperature
  • Satellite Maps
  • Weather Map
  • Weather Widgets
  • user-avatar
    Login

    Hourly Weather Idzhewan

    Today, 19 May, Sunday

    Time Temperature Precipitation Wind Pressure Humidity
    00:00 +18°C° 0.8 mm 2 mps 691 mmHg 88%
    01:00 +18°C° 0 mm 2 mps 691 mmHg 85%
    02:00 +18°C° 0 mm 2 mps 690 mmHg 82%
    03:00 +17°C° 0 mm 3 mps 690 mmHg 70%
    04:00 +18°C° 0 mm 3 mps 690 mmHg 69%
    05:00 +18°C° 0 mm 3 mps 690 mmHg 68%
    06:00 +18°C° 0 mm 3 mps 690 mmHg 67%
    07:00 +20°C° 0 mm 2 mps 690 mmHg 61%
    08:00 +24°C° 0 mm 2 mps 690 mmHg 55%
    09:00 +26°C° 0 mm 1 mps 690 mmHg 49%
    10:00 +27°C° 0 mm 1 mps 690 mmHg 47%
    11:00 +28°C° 0 mm 2 mps 690 mmHg 45%
    12:00 +29°C° 0 mm 2 mps 690 mmHg 43%
    13:00 +30°C° 0 mm 2 mps 690 mmHg 42%
    14:00 +30°C° 0 mm 2 mps 690 mmHg 40%
    15:00 +30°C° 0 mm 2 mps 690 mmHg 39%
    16:00 +29°C° 0 mm 1 mps 690 mmHg 46%
    17:00 +28°C° 0 mm 1 mps 690 mmHg 52%
    18:00 +27°C° 0 mm 1 mps 689 mmHg 59%
    19:00 +25°C° 2.3 mm 1 mps 690 mmHg 64%
    20:00 +23°C° 2.3 mm 1 mps 690 mmHg 70%
    21:00 +21°C° 2.3 mm 1 mps 690 mmHg 76%
    22:00 +20°C° 0.2 mm 1 mps 690 mmHg 75%
    23:00 +20°C° 0.2 mm 1 mps 690 mmHg 74%

    Tomorrow, 20 May, Monday

    Time Temperature Precipitation Wind Pressure Humidity
    00:00 +19°C° 0.2 mm 2 mps 690 mmHg 74%
    01:00 +19°C° 0.1 mm 1 mps 690 mmHg 74%
    02:00 +18°C° 0.1 mm 1 mps 690 mmHg 74%
    03:00 +18°C° 0.1 mm 1 mps 690 mmHg 75%
    04:00 +18°C° 0.2 mm 1 mps 690 mmHg 75%
    05:00 +17°C° 0.2 mm 2 mps 690 mmHg 75%
    06:00 +18°C° 0.2 mm 2 mps 690 mmHg 75%
    07:00 +19°C° 0.9 mm 2 mps 691 mmHg 72%
    08:00 +21°C° 0.9 mm 2 mps 691 mmHg 68%
    09:00 +24°C° 0.9 mm 2 mps 691 mmHg 65%
    10:00 +24°C° 1.7 mm 2 mps 691 mmHg 65%
    11:00 +25°C° 1.7 mm 2 mps 691 mmHg 64%
    12:00 +25°C° 1.7 mm 3 mps 691 mmHg 63%
    13:00 +25°C° 2.2 mm 2 mps 691 mmHg 63%
    14:00 +25°C° 2.2 mm 2 mps 690 mmHg 63%
    15:00 +25°C° 2.2 mm 2 mps 690 mmHg 64%
    16:00 +24°C° 1.9 mm 2 mps 690 mmHg 67%
    17:00 +23°C° 1.9 mm 2 mps 691 mmHg 71%
    18:00 +22°C° 1.9 mm 1 mps 691 mmHg 75%
    19:00 +21°C° 2.1 mm 1 mps 691 mmHg 79%
    20:00 +19°C° 2.1 mm 1 mps 691 mmHg 83%
    21:00 +18°C° 2.1 mm 1 mps 692 mmHg 87%
    22:00 +18°C° 1.4 mm 1 mps 692 mmHg 90%
    23:00 +18°C° 1.4 mm 1 mps 692 mmHg 92%

    Day after tomorrow, 21 May, Tuesday

    Time Temperature Precipitation Wind Pressure Humidity
    00:00 +16°C° 1.4 mm 1 mps 693 mmHg 95%
    01:00 +16°C° 0.9 mm 1 mps 693 mmHg 95%
    02:00 +16°C° 0.9 mm 1 mps 693 mmHg 96%
    03:00 +16°C° 0.9 mm 1 mps 693 mmHg 96%
    04:00 +16°C° 0.5 mm 1 mps 693 mmHg 96%
    05:00 +16°C° 0.5 mm 1 mps 693 mmHg 96%
    06:00 +16°C° 0.5 mm 1 mps 694 mmHg 95%
    07:00 +16°C° 0.1 mm 1 mps 694 mmHg 94%
    08:00 +16°C° 0.1 mm 1 mps 694 mmHg 92%
    09:00 +16°C° 0.1 mm 2 mps 694 mmHg 90%
    10:00 +17°C° 0.2 mm 2 mps 694 mmHg 89%
    11:00 +17°C° 0.2 mm 2 mps 694 mmHg 87%
    12:00 +17°C° 0.2 mm 2 mps 694 mmHg 85%
    13:00 +18°C° 0.1 mm 2 mps 694 mmHg 81%
    14:00 +19°C° 0.1 mm 2 mps 694 mmHg 76%
    15:00 +20°C° 0.1 mm 2 mps 694 mmHg 72%
    16:00 +19°C° 0 mm 2 mps 694 mmHg 73%
    17:00 +19°C° 0 mm 2 mps 694 mmHg 74%
    18:00 +19°C° 0 mm 2 mps 695 mmHg 75%
    19:00 +18°C° 0 mm 1 mps 695 mmHg 78%
    20:00 +16°C° 0 mm 1 mps 695 mmHg 81%
    21:00 +13°C° 0 mm 0 mps 695 mmHg 84%
    22:00 +13°C° 0 mm 0 mps 695 mmHg 85%
    23:00 +13°C° 0 mm 0 mps 695 mmHg 87%

    22 May, Wednesday

    Time Temperature Precipitation Wind Pressure Humidity
    00:00 +13°C° 0 mm 0 mps 696 mmHg 88%
    01:00 +12°C° 0 mm 0 mps 695 mmHg 89%
    02:00 +12°C° 0 mm 0 mps 695 mmHg 91%
    03:00 +11°C° 0 mm 0 mps 695 mmHg 92%
    04:00 +12°C° 0 mm 0 mps 695 mmHg 90%
    05:00 +12°C° 0 mm 0 mps 695 mmHg 88%
    06:00 +13°C° 0 mm 0 mps 695 mmHg 86%
    07:00 +14°C° 0 mm 0 mps 695 mmHg 81%
    08:00 +18°C° 0 mm 1 mps 695 mmHg 76%
    09:00 +19°C° 0 mm 1 mps 695 mmHg 71%
    10:00 +19°C° 0 mm 2 mps 694 mmHg 68%
    11:00 +20°C° 0 mm 2 mps 694 mmHg 66%
    12:00 +21°C° 0 mm 2 mps 694 mmHg 64%
    13:00 +21°C° 0.1 mm 2 mps 693 mmHg 65%
    14:00 +21°C° 0.1 mm 2 mps 693 mmHg 67%
    15:00 +21°C° 0.1 mm 2 mps 692 mmHg 69%
    16:00 +20°C° 1.2 mm 2 mps 692 mmHg 76%
    17:00 +19°C° 1.2 mm 1 mps 692 mmHg 83%
    18:00 +18°C° 1.2 mm 1 mps 692 mmHg 90%
    19:00 +18°C° 1.2 mm 1 mps 692 mmHg 91%
    20:00 +16°C° 1.2 mm 1 mps 693 mmHg 91%
    21:00 +16°C° 1.2 mm 1 mps 693 mmHg 92%
    22:00 +16°C° 0 mm 1 mps 693 mmHg 91%
    23:00 +15°C° 0 mm 1 mps 693 mmHg 90%

    23 May, Thursday

    Time Temperature Precipitation Wind Pressure Humidity
    00:00 +15°C° 0 mm 1 mps 693 mmHg 89%
    01:00 +15°C° 0 mm 1 mps 692 mmHg 89%
    02:00 +14°C° 0 mm 2 mps 692 mmHg 89%
    03:00 +14°C° 0 mm 2 mps 692 mmHg 89%
    04:00 +14°C° 0 mm 2 mps 692 mmHg 87%
    05:00 +15°C° 0 mm 2 mps 692 mmHg 86%
    06:00 +16°C° 0 mm 2 mps 692 mmHg 84%
    07:00 +18°C° 0 mm 2 mps 692 mmHg 75%
    08:00 +20°C° 0 mm 2 mps 693 mmHg 67%
    09:00 +23°C° 0 mm 2 mps 693 mmHg 58%
    10:00 +23°C° 0 mm 2 mps 693 mmHg 54%
    11:00 +24°C° 0 mm 2 mps 692 mmHg 51%
    12:00 +25°C° 0 mm 2 mps 692 mmHg 48%
    13:00 +25°C° 0.1 mm 2 mps 692 mmHg 48%
    14:00 +26°C° 0.1 mm 2 mps 692 mmHg 48%
    15:00 +26°C° 0.1 mm 2 mps 691 mmHg 47%
    16:00 +25°C° 0.1 mm 2 mps 691 mmHg 55%
    17:00 +24°C° 0.1 mm 2 mps 691 mmHg 62%
    18:00 +21°C° 0.1 mm 2 mps 691 mmHg 69%
    19:00 +21°C° 0 mm 1 mps 692 mmHg 72%
    20:00 +19°C° 0 mm 1 mps 692 mmHg 76%
    21:00 +16°C° 0 mm 1 mps 692 mmHg 80%
    22:00 +16°C° 0 mm 1 mps 693 mmHg 80%
    23:00 +16°C° 0 mm 1 mps 693 mmHg 81%

    24 May, Friday

    Time Temperature Precipitation Wind Pressure Humidity
    00:00 +15°C° 0 mm 1 mps 693 mmHg 81%
    01:00 +15°C° 0 mm 1 mps 693 mmHg 82%
    02:00 +14°C° 0 mm 1 mps 692 mmHg 83%
    03:00 +14°C° 0 mm 1 mps 692 mmHg 84%
    04:00 +14°C° 0 mm 1 mps 693 mmHg 82%
    05:00 +15°C° 0 mm 1 mps 693 mmHg 81%
    06:00 +16°C° 0 mm 1 mps 693 mmHg 80%
    07:00 +19°C° 0 mm 1 mps 693 mmHg 74%
    08:00 +21°C° 0 mm 1 mps 693 mmHg 68%
    09:00 +23°C° 0 mm 1 mps 693 mmHg 62%
    10:00 +23°C° 0.1 mm 2 mps 693 mmHg 61%
    11:00 +24°C° 0.1 mm 2 mps 693 mmHg 59%
    12:00 +25°C° 0.1 mm 2 mps 693 mmHg 57%
    13:00 +25°C° 0.4 mm 2 mps 692 mmHg 57%
    14:00 +26°C° 0.4 mm 2 mps 692 mmHg 57%
    15:00 +26°C° 0.4 mm 2 mps 692 mmHg 57%
    16:00 +25°C° 0.4 mm 2 mps 692 mmHg 62%
    17:00 +25°C° 0.4 mm 1 mps 692 mmHg 67%
    18:00 +24°C° 0.4 mm 1 mps 692 mmHg 72%
    19:00 +23°C° 0.2 mm 1 mps 693 mmHg 75%
    20:00 +21°C° 0.2 mm 1 mps 693 mmHg 77%
    21:00 +19°C° 0.2 mm 2 mps 693 mmHg 80%
    22:00 +18°C° 0 mm 2 mps 693 mmHg 79%
    23:00 +18°C° 0 mm 2 mps 693 mmHg 78%
    Show more